RH
3 5 6 5 4 6 6 15 18 8 4 20 31 40 22 19 46 46 38 38 33 17 24 90 47 26 87 94 63 83 70 50 59 68 25 35 33 29 50 27 28 17 11 20
2 3 4 5 4 4 5 7 11 8 6 11 37 30 11 20 41 39 34 32 24 20 48 100 55 44 85 99 93 23 26 21 25 40 35 41 25 18 13 11 9 10 12 22
2 2 2 3 3 3 3 4 5 6 5 9 21 28 6 10 38 35 35 28 24 21 29 90 91 31 44 35 31 21 22 21 22 21 15 13 18 42 34 12 10 12 20 27
1 2 2 2 2 2 3 3 4 6 12 11 14 19 4 16 36 31 35 22 15 16 21 58 33 18 16 11 11 12 11 10 11 12 12 12 21 77 33 31 15 13 31 28
1 1 2 2 2 2 3 3 4 4 8 8 6 10 4 15 35 31 37 22 14 16 21 16 14 12 10 11 13 9 8 9 10 8 10 11 9 33 16 18 27 26 29 31
1 1 1 2 2 2 2 2 4 4 4 6 10 9 6 13 35 32 41 23 14 19 19 18 13 10 12 10 12 9 16 22 18 12 11 8 9 16 23 32 35 38 35 32
5 1 1 1 2 2 2 2 4 5 4 6 8 15 17 17 34 31 44 36 18 18 18 16 13 12 11 8 74 32 22 28 27 18 9 10 14 18 26 34 34 32 29 26
18 2 2 1 1 2 2 2 3 4 4 5 3 9 36 31 37 35 41 29 25 29 20 32 55 13 7 7 40 41 38 49 26 18 11 13 19 23 28 30 29 28 27 26
15 3 2 2 1 2 2 2 3 4 6 4 10 5 39 44 41 51 47 26 78 37 25 30 22 10 8 8 21 30 24 23 24 18 16 16 23 23 21 24 20 18 19 14
98 53 4 2 2 2 2 2 2 4 36 28 58 22 15 44 56 43 43 65 66 26 20 14 14 9 8 8 15 30 28 22 21 20 17 18 18 20 22 18 10 9 9 9
100 100 50 2 2 2 3 3 2 3 32 77 62 68 58 70 48 32 40 76 94 58 30 48 14 11 9 7 10 12 19 24 25 24 20 14 10 8 8 9 9 9 9 8
97 68 22 2 2 2 3 14 8 6 61 100 91 75 45 44 41 30 43 81 92 46 28 19 14 16 12 12 10 10 9 9 9 10 10 10 9 8 8 8 9 9 7 7
100 81 6 2 2 20 4 46 54 52 89 100 99 79 52 89 74 42 63 44 98 43 33 22 19 17 13 14 14 11 10 11 12 12 11 10 9 8 8 9 11 9 8 8
92 47 3 2 6 41 100 56 58 42 92 100 92 79 78 46 29 39 45 57 91 38 32 20 20 21 21 23 23 18 13 12 13 14 12 11 10 9 9 10 10 9 9 9
30 6 2 15 88 76 47 53 76 99 100 98 97 87 87 70 63 84 98 44 35 30 32 23 20 20 20 22 17 17 16 14 15 14 14 13 13 14 15 16 14 10 10 11
4 2 59 100 100 84 59 50 87 99 100 99 100 88 82 94 100 100 85 100 48 25 32 28 26 28 27 21 17 16 15 14 14 15 13 12 13 17 20 17 14 13 15 23
6 87 91 100 88 54 90 93 100 100 100 100 99 99 99 100 98 84 56 40 28 19 29 36 38 41 48 36 21 19 17 14 16 16 14 15 18 22 19 18 18 18 24 37
97 87 92 78 75 51 100 100 100 97 99 91 85 80 94 94 80 60 45 35 23 22 23 28 33 31 31 31 27 23 19 20 20 22 22 20 20 22 23 21 22 32 42 49
64 76 85 95 97 96 98 100 100 98 96 95 91 71 64 66 56 53 46 35 31 24 23 29 33 29 26 22 21 24 23 22 25 28 29 28 26 24 23 25 36 47 58 58
73 86 99 99 99 99 88 80 79 95 82 75 61 57 53 50 59 46 41 43 33 30 23 26 25 26 29 27 28 32 31 30 33 35 34 37 33 30 38 49 54 61 60 57
54 76 44 51 47 96 100 95 100 93 77 64 56 49 62 60 56 54 48 48 43 37 32 33 28 30 35 40 52 61 61 55 48 44 41 41 44 54 66 67 65 61 64 75
68 72 90 96 100 99 72 76 64 55 47 47 51 77 79 86 79 68 70 74 74 69 66 65 54 54 69 84 94 91 78 62 53 50 57 65 75 75 67 65 73 84 98 100
100 100 100 100 97 92 74 74 76 79 92 86 84 99 100 100 100 99 99 98 98 93 82 84 93 100 100 99 89 76 68 65 67 88 86 86 80 76 79 92 100 100 100 100
97 95 98 91 99 88 84 83 94 90 95 100 96 94 98 100 100 94 82 77 85 90 93 90 90 89 84 73 67 84 92 91 93 89 88 90 96 100 100 100 100 100 100 100
100 95 95 81 92 93 99 100 94 97 95 94 98 100 100 100 99 98 94 94 85 81 77 70 66 73 92 100 100 96 94 100 98 99 100 100 100 100 100 100 100 98 74 28
100 97 96 95 99 98 97 100 100 100 100 100 99 95 95 95 96 92 90 84 76 79 94 99 99 98 94 96 100 98 100 100 100 100 100 100 100 100 100 95 68 32 12 8
100 99 100 100 100 100 100 100 100 98 100 100 100 100 99 98 100 100 100 100 100 100 97 93 89 96 100 100 100 100 100 100 100 100 100 100 100 83 42 22 10 9 10 11
Wind_Speed
94 89 82 75 71 68 66 61 58 54 54 53 50 42 41 32 34 34 29 25 23 21 16 12 14 13 13 17 20 20 19 23 18 9 11 11 15 15 17 18 15 18 12 13
98 94 88 80 74 70 67 62 58 58 56 52 48 46 43 36 38 37 33 25 25 26 23 24 19 19 18 22 21 16 20 21 16 14 15 15 17 18 19 19 17 14 14 12
99 97 92 85 78 74 70 67 64 60 57 49 51 51 42 39 40 40 34 27 27 31 30 28 25 25 24 19 20 20 20 20 18 19 19 21 19 18 19 22 22 13 13 13
91 99 96 89 84 78 76 72 62 58 55 54 56 57 46 43 44 43 36 32 35 33 30 32 29 27 24 19 17 19 22 23 22 22 21 26 21 22 19 18 20 18 12 16
92 97 99 92 87 85 83 74 59 55 52 54 56 58 49 46 46 43 37 35 37 36 32 29 26 25 24 21 23 25 27 27 28 26 25 26 25 21 20 17 15 17 15 17
84 95 94 95 93 92 86 73 64 55 55 57 57 55 45 43 46 41 37 34 36 38 34 31 29 27 25 23 23 24 25 26 27 25 25 24 23 15 21 17 18 19 20 24
63 93 99 94 97 94 84 74 69 61 59 59 55 49 44 46 48 45 41 37 38 41 35 32 29 25 23 20 20 23 23 26 26 23 24 24 19 19 17 18 20 22 25 26
54 76 97 103 100 94 85 77 72 68 67 60 58 50 44 49 49 46 41 42 43 41 35 33 30 26 23 21 23 22 23 23 24 24 24 21 20 19 16 20 23 24 24 25
48 64 90 102 100 91 85 83 79 74 66 59 56 56 48 52 51 50 47 47 40 43 40 36 31 24 20 22 21 22 22 21 24 22 22 22 22 21 19 23 26 22 22 24
36 42 79 95 102 91 88 86 81 73 56 59 45 56 51 50 51 49 46 42 46 46 40 34 30 24 22 21 18 20 20 18 19 20 21 20 20 19 22 22 22 20 24 27
53 45 57 93 101 93 89 85 78 74 55 43 47 47 52 51 51 51 49 48 52 48 40 38 33 26 21 18 16 16 16 17 17 17 17 18 17 17 19 21 22 25 28 32
37 43 64 93 99 93 84 81 76 73 43 33 38 43 51 46 49 54 47 43 37 39 42 39 33 28 24 21 18 17 16 15 15 17 17 18 20 21 21 23 25 29 33 35
39 44 61 91 93 85 82 73 67 52 40 41 35 42 53 47 52 50 49 50 43 44 44 40 36 33 28 25 21 22 19 18 19 20 22 22 24 24 26 28 31 35 38 41
41 51 72 91 87 78 72 69 58 40 43 50 44 50 54 60 56 53 50 54 50 45 45 45 40 36 33 28 27 26 24 23 23 24 26 27 30 32 34 37 39 40 44 45
51 63 82 83 78 81 73 64 61 52 28 34 57 51 56 55 51 44 37 49 51 43 43 47 46 42 37 33 32 31 30 29 29 31 31 32 35 37 40 42 45 48 48 48
68 79 93 74 76 70 63 58 29 32 35 32 52 49 48 55 56 51 47 38 41 47 51 50 48 44 39 38 37 35 35 35 36 37 38 39 39 41 43 47 50 49 49 48
85 80 75 71 72 71 56 32 32 31 36 43 48 47 51 50 44 46 50 53 50 49 50 53 50 47 45 44 42 40 40 40 40 42 43 43 43 45 49 50 50 50 49 48
69 66 67 67 62 72 45 31 28 25 28 32 35 33 37 40 37 38 40 44 47 48 50 49 49 48 49 49 48 46 45 44 43 44 46 48 49 51 51 51 50 48 48 49
68 70 69 65 38 48 30 30 23 20 20 20 24 27 33 38 41 37 35 37 40 45 47 49 47 47 49 49 47 46 47 47 47 47 48 50 52 53 54 52 51 50 51 53
66 62 53 39 42 26 46 25 23 23 23 26 28 28 28 30 34 36 36 37 40 43 45 45 46 46 46 46 46 47 48 48 48 49 50 50 52 53 51 51 52 53 54 55
59 57 53 55 43 26 25 36 28 27 26 26 25 28 28 29 30 30 33 36 38 40 42 45 47 45 44 44 45 46 47 48 49 50 51 51 51 51 51 53 54 54 55 55
45 44 43 45 30 25 28 29 25 23 25 27 30 27 25 24 25 28 31 35 38 41 42 45 46 43 42 43 44 44 44 46 48 50 50 50 51 52 53 53 54 54 53 54
39 42 44 26 28 29 29 28 26 29 28 25 22 26 23 22 22 24 27 30 35 39 43 44 42 42 42 42 41 42 43 45 46 48 50 51 52 52 52 52 53 54 55 57
45 46 39 37 29 38 30 27 25 28 35 31 29 27 26 25 25 25 27 30 35 40 40 39 38 39 40 40 40 41 43 45 47 49 50 50 50 49 50 50 53 56 59 61
38 42 48 43 34 34 26 18 24 18 18 26 27 27 29 30 31 32 33 35 37 38 36 36 36 37 38 40 42 45 46 47 47 45 45 45 47 51 53 55 58 59 58 56
24 27 23 25 29 28 26 21 23 19 18 23 26 27 29 29 30 30 30 31 33 33 34 36 39 41 41 43 46 46 43 42 42 44 47 49 52 55 57 58 57 55 54 55
20 22 18 17 19 22 25 20 20 21 23 25 25 24 25 25 28 30 31 33 35 38 39 40 41 43 43 40 40 41 41 43 47 50 54 57 57 56 54 53 53 54 58 60
Wind_Direction
228 230 230 227 226 226 227 227 223 219 221 217 217 215 220 219 217 226 233 230 228 217 203 227 234 198 190 205 228 245 243 239 240 216 219 237 245 248 246 249 250 263 248 236
224 224 226 225 223 223 225 224 222 221 220 213 210 213 221 214 218 225 229 226 222 213 192 216 222 203 209 214 232 223 227 236 234 248 250 245 240 251 257 262 252 255 259 240
218 219 221 220 219 219 220 221 220 218 218 212 206 212 218 214 216 225 225 219 207 222 197 205 217 211 214 224 224 229 231 237 244 242 244 246 237 245 252 253 261 266 257 233
212 213 214 215 214 214 215 218 216 217 214 208 203 208 210 208 213 222 222 210 207 215 205 210 217 218 227 227 223 232 239 243 243 245 242 253 247 259 265 256 253 248 233 252
206 209 207 209 210 208 210 215 211 211 210 213 210 211 210 204 211 219 220 216 207 211 211 214 219 224 228 235 242 243 245 248 249 248 250 255 260 258 277 269 261 264 252 246
207 202 203 203 203 204 207 208 205 206 210 209 211 211 212 206 210 215 219 216 207 213 214 216 220 224 235 246 249 247 248 250 250 249 247 246 254 258 248 246 248 259 258 251
208 203 197 198 198 201 205 206 202 202 203 207 205 212 208 206 209 211 212 212 212 215 216 217 224 230 243 249 244 257 252 248 246 246 245 247 243 242 243 247 249 251 258 266
208 203 199 192 195 195 197 197 198 202 204 205 208 205 205 202 205 210 211 213 210 216 216 217 223 231 242 243 244 251 255 249 248 244 243 243 242 232 239 248 252 255 263 272
204 198 201 194 190 192 190 193 195 200 204 203 208 211 206 200 206 206 210 212 205 216 216 215 219 230 242 246 247 252 257 249 247 245 243 243 236 246 246 250 255 262 268 271
173 192 198 198 187 186 189 191 194 197 198 205 204 205 206 203 204 211 215 207 212 213 217 217 220 225 233 242 237 241 247 245 241 241 243 243 245 242 249 255 265 272 275 278
177 182 193 194 185 181 188 191 190 195 197 201 208 203 200 202 206 212 213 212 213 212 213 217 220 222 227 231 222 234 241 244 242 242 243 242 247 249 258 264 275 280 286 287
193 193 195 191 183 179 186 192 191 194 188 181 202 203 200 207 216 216 216 209 225 220 216 217 220 221 224 227 224 229 238 241 243 248 250 255 259 266 270 279 288 287 286 292
191 190 186 184 179 178 184 186 186 185 190 199 201 202 196 200 207 213 213 212 217 215 217 219 221 224 227 231 236 239 237 245 249 258 263 267 274 279 285 290 289 291 294 295
181 175 177 177 178 171 173 183 174 182 206 210 222 217 204 207 213 216 215 213 218 221 220 222 224 228 228 233 239 244 249 254 260 267 274 280 284 287 290 293 295 297 296 297
170 164 168 167 170 174 179 179 177 181 199 202 187 193 200 206 212 203 217 223 224 220 223 225 227 230 234 236 242 248 254 259 266 270 274 278 284 289 291 293 293 294 297 299
151 158 161 161 158 167 171 165 187 194 181 177 182 200 208 207 209 211 196 212 219 218 222 227 230 236 241 244 247 252 259 265 270 274 276 280 283 288 290 290 291 296 296 297
146 149 152 152 160 161 155 175 160 157 165 179 187 201 199 205 212 214 213 221 226 222 225 231 235 241 247 251 253 259 264 267 271 275 278 281 284 286 287 290 292 294 296 296
142 148 150 151 148 174 183 193 176 187 187 200 204 206 205 207 215 219 224 227 229 229 231 236 240 244 249 253 257 263 267 271 274 277 280 281 284 287 288 290 292 292 292 292
151 142 148 150 158 186 154 172 183 186 197 203 198 206 212 212 215 223 227 230 234 235 238 239 244 248 252 256 261 265 267 270 274 276 279 283 285 287 289 291 291 291 293 293
145 150 164 154 165 167 199 212 204 205 202 200 205 209 209 215 215 221 227 232 235 237 239 241 244 249 253 256 259 264 267 269 273 277 280 282 284 286 287 287 289 290 291 293
162 167 168 174 180 198 191 204 214 216 214 214 211 206 212 216 216 220 227 234 238 239 240 242 245 248 252 257 261 264 268 272 276 278 280 282 284 286 287 288 290 291 293 294
160 163 171 181 191 188 190 196 198 205 207 207 202 205 211 217 221 224 226 229 234 238 240 242 246 249 254 259 262 267 271 274 277 279 280 282 283 285 288 290 291 293 292 291
169 175 179 193 207 204 210 212 207 202 200 204 207 217 212 215 225 234 235 236 242 243 247 249 253 257 260 263 267 270 272 273 276 277 279 283 285 286 288 289 289 289 290 292
177 183 186 191 210 209 218 220 223 224 224 218 219 227 234 244 244 245 243 247 249 252 256 259 262 264 266 269 272 272 273 276 278 280 282 283 284 285 286 288 288 289 291 296
191 194 199 207 214 207 219 220 203 205 219 221 227 229 233 233 237 240 248 254 256 258 261 265 267 269 270 271 273 275 277 279 280 281 282 283 285 287 288 288 290 294 297 296
189 192 192 203 210 214 222 218 217 227 228 225 228 233 238 242 248 254 256 258 260 263 265 266 267 268 270 273 276 278 278 279 279 279 284 287 287 287 290 294 295 294 293 294
194 200 212 211 223 222 222 226 248 247 249 250 252 249 245 249 250 252 254 260 267 270 271 270 272 274 277 276 277 278 274 270 276 280 283 286 290 293 292 291 292 293 293 295